GW6043 Weather Reports


time (UTC)temp
F
wind
direction
speed
knots
gust
knots
rain 1hr
in
rain 24hr
in
rain mn
in
humidity
%
barometer
mb
20260504214603 74 269 4.3 5.2 0.00 0.00 0.00 42 1009.6
20260504214059 74 191 4.3 7.8 0.00 0.00 0.00 41 1009.4
20260504213555 74 182 2.6 2.6 0.00 0.00 0.00 42 1009.7
20260504213053 73 172 4.3 7.8 0.00 0.00 0.00 41 1009.6
20260504212548 75 172 5.2 8.7 0.00 0.00 0.00 41 1009.5
20260504212046 75 153 2.6 4.3 0.00 0.00 0.00 41 1009.8
20260504211542 75 284 1.7 2.6 0.00 0.00 0.00 41 1009.5
20260504211039 74 208 4.3 6.1 0.00 0.00 0.00 41 1009.4
20260504210536 75 199 2.6 2.6 0.00 0.00 0.00 41 1009.2
20260504210033 75 253 1.7 2.6 0.00 0.00 0.00 41 1009.3
20260504205531 75 276 4.3 4.3 0.00 0.00 0.00 40 1009.5
20260504205029 75 180 3.5 4.3 0.00 0.00 0.00 40 1009.4
20260504204526 75 193 2.6 2.6 0.00 0.00 0.00 41 1009.4
20260504204026 75 229 4.3 5.2 0.00 0.00 0.00 38 1009.4
20260504203523 75 152 3.5 5.2 0.00 0.00 0.00 41 1009.4
20260504203020 74 129 3.5 4.3 0.00 0.00 0.00 40 1009.3
20260504202516 75 183 4.3 6.1 0.00 0.00 0.00 41 1009.4
20260504202013 75 196 6.1 7.0 0.00 0.00 0.00 40 1009.9
20260504201510 74 180 3.5 5.2 0.00 0.00 0.00 41 1009.9
20260504201008 75 171 3.5 6.1 0.00 0.00 0.00 40 1009.7
20260504200504 74 190 1.7 1.7 0.00 0.00 0.00 41 1009.7
20260504200000 75 220 3.5 4.3 0.00 0.00 0.00 40 1010.0
20260504195456 74 155 4.3 5.2 0.00 0.00 0.00 39 1010.0
20260504194953 75 214 4.3 7.8 0.00 0.00 0.00 39 1010.3
20260504194449 74 249 2.6 4.3 0.00 0.00 0.00 40 1010.2
20260504193945 74 183 6.1 7.8 0.00 0.00 0.00 41 1010.4
20260504193443 73 143 4.3 5.2 0.00 0.00 0.00 41 1010.3
20260504192942 73 142 5.2 8.7 0.00 0.00 0.00 41 1010.7
20260504192438 75 226 5.2 6.1 0.00 0.00 0.00 41 1010.4
20260504191937 72 189 2.6 2.6 0.00 0.00 0.00 43 1010.7
20260504191435 72 209 2.6 4.3 0.00 0.00 0.00 42 1010.7
20260504190935 72 172 7.0 9.6 0.00 0.00 0.00 41 1010.8
20260504190432 73 146 4.3 6.1 0.00 0.00 0.00 41 1010.8
20260504185928 74 201 4.3 5.2 0.00 0.00 0.00 41 1011.0
20260504185426 73 195 5.2 7.0 0.00 0.00 0.00 40 1010.9
20260504184921 73 178 4.3 5.2 0.00 0.00 0.00 41 1011.1
20260504184417 73 198 4.3 7.0 0.00 0.00 0.00 42 1011.1
20260504183914 72 192 5.2 6.1 0.00 0.00 0.00 44 1011.2
20260504183411 72 212 4.3 6.1 0.00 0.00 0.00 42 1011.2
20260504182909 72 202 3.5 5.2 0.00 0.00 0.00 43 1011.5
20260504182405 72 162 5.2 6.1 0.00 0.00 0.00 42 1011.5
20260504181902 72 148 7.0 11.3 0.00 0.00 0.00 41 1011.7
20260504181400 72 226 2.6 4.3 0.00 0.00 0.00 42 1011.6
20260504180858 74 183 6.1 8.7 0.00 0.00 0.00 39 1011.6
20260504180356 73 247 2.6 5.2 0.00 0.00 0.00 41 1011.5
20260504175855 72 242 2.6 4.3 0.00 0.00 0.00 41 1011.8
20260504175351 72 156 7.8 11.3 0.00 0.00 0.00 41 1011.9
20260504174849 72 194 2.6 4.3 0.00 0.00 0.00 42 1012.1
20260504174346 72 138 3.5 6.1 0.00 0.00 0.00 40 1011.9
20260504173843 71 169 2.6 4.3 0.00 0.00 0.00 41 1012.1
20260504173340 71 195 7.0 7.8 0.00 0.00 0.00 41 1012.1
20260504172837 70 141 7.8 8.7 0.00 0.00 0.00 41 1012.1
20260504172333 71 133 4.3 8.7 0.00 0.00 0.00 42 1012.2
20260504171829 71 281 3.5 5.2 0.00 0.00 0.00 43 1012.4
20260504171327 71 187 3.5 6.1 0.00 0.00 0.00 41 1012.3
20260504170824 69 25 3.5 7.0 0.00 0.00 0.00 42 1012.5
20260504170320 71 222 6.1 7.8 0.00 0.00 0.00 41 1012.7
20260504160239 69 109 3.5 5.2 0.00 0.00 0.00 44 1013.6
20260504150704 66 140 0.0 0.0 0.00 0.00 0.00 43 1014.2
20260504150201 66 202 1.7 4.3 0.00 0.00 0.00 42 1014.2
20260504141130 63 323 0.9 0.9 0.00 0.00 0.00 47 1014.7
20260504140627 61 243 1.7 1.7 0.00 0.00 0.00 49 1014.5
20260504140122 62 304 0.9 0.9 0.00 0.00 0.00 47 1014.7
20260504130551 55 327 1.7 2.6 0.00 0.00 0.00 52 1015.2
20260504110438 45 344 0.0 0.0 0.00 0.00 0.00 70 1015.4
20260504100354 42 294 0.0 0.0 0.00 0.00 0.00 72 1015.6
20260504081748 44 346 0.0 0.9 0.00 0.00 0.00 66 1016.0
20260504081244 44 318 0.0 0.0 0.00 0.00 0.00 66 1016.0
20260504080741 45 324 0.0 0.0 0.00 0.00 0.00 64 1016.1
20260504080237 45 316 0.0 0.0 0.00 0.00 0.00 64 1016.0
20260504070205 46 310 0.0 0.0 0.00 0.00 0.00 66 1016.0
20260504060125 44 320 0.0 0.0 0.00 0.00 0.00 71 1015.9
20260504050554 48 310 1.7 1.7 0.00 0.00 0.00 59 1016.2
20260504045547 47 323 0.0 0.0 0.00 0.00 0.00 62 1016.0
20260504045043 47 315 0.0 0.0 0.00 0.00 0.00 62 1016.2
20260504044540 47 291 0.0 0.0 0.00 0.00 0.00 61 1016.2
20260504044037 48 320 0.0 0.0 0.00 0.00 0.00 59 1016.1
20260504043534 48 308 0.0 0.0 0.00 0.00 0.00 59 1015.8
20260504043032 48 319 0.0 0.0 0.00 0.00 0.00 60 1015.9
20260504042529 48 317 0.0 0.0 0.00 0.00 0.00 59 1015.9
20260504042026 48 324 0.0 0.0 0.00 0.00 0.00 57 1016.0
20260504041521 48 319 0.0 0.9 0.00 0.00 0.00 58 1016.1
20260504041017 48 322 0.0 0.0 0.00 0.00 0.00 59 1016.1
20260504040515 49 318 0.0 0.0 0.00 0.00 0.00 57 1016.0
20260504040012 49 318 0.0 0.0 0.00 0.00 0.00 56 1016.0
20260504035509 49 308 0.9 0.9 0.00 0.00 0.00 57 1015.9
20260504035005 50 308 0.0 0.0 0.00 0.00 0.00 58 1015.9
20260504034503 49 306 0.9 0.9 0.00 0.00 0.00 57 1015.6
20260504033959 50 318 0.0 0.0 0.00 0.00 0.00 56 1015.6
20260504033457 50 229 1.7 1.7 0.00 0.00 0.00 57 1015.8
20260504032954 50 294 0.9 0.9 0.00 0.00 0.00 56 1015.6
20260504032451 50 305 0.9 0.9 0.00 0.00 0.00 56 1015.8
20260504031948 50 315 0.0 0.0 0.00 0.00 0.00 55 1015.8
20260504031445 50 308 0.0 0.0 0.00 0.00 0.00 54 1015.6
20260504030941 50 321 0.0 0.0 0.00 0.00 0.00 54 1015.4
20260504030438 51 323 0.0 0.0 0.00 0.00 0.00 53 1015.6
20260504025934 51 313 0.0 0.0 0.00 0.00 0.00 54 1015.7
20260504025431 51 312 0.9 0.9 0.00 0.00 0.00 53 1015.5
20260504024929 50 295 0.0 0.0 0.00 0.00 0.00 54 1015.5
20260504024426 50 316 0.0 0.9 0.00 0.00 0.00 56 1015.5
20260504023922 51 304 0.0 0.9 0.00 0.00 0.00 56 1015.6
20260504023419 51 304 0.0 0.0 0.00 0.00 0.00 54 1015.6
20260504022914 51 320 0.0 0.0 0.00 0.00 0.00 53 1015.6
20260504022411 51 324 0.0 0.0 0.00 0.00 0.00 52 1015.3
20260504021908 51 308 0.0 0.0 0.00 0.00 0.00 52 1015.5
20260504021405 51 322 0.0 0.0 0.00 0.00 0.00 52 1015.5
20260504020902 51 324 0.0 0.0 0.00 0.00 0.00 52 1015.5
20260504020359 51 330 0.0 0.0 0.00 0.00 0.00 51 1015.4
20260504015855 52 329 0.0 0.0 0.00 0.00 0.00 51 1015.5
20260504015351 53 321 0.0 0.0 0.00 0.00 0.00 50 1015.5
20260504014847 53 317 0.0 0.0 0.00 0.00 0.00 50 1015.3
20260504014343 53 310 0.9 0.9 0.00 0.00 0.00 48 1015.5
20260504013841 53 308 0.0 0.9 0.00 0.00 0.00 48 1015.4
20260504013339 53 306 0.0 0.0 0.00 0.00 0.00 48 1015.4
20260504012835 54 279 0.9 0.9 0.00 0.00 0.00 47 1015.4
20260504012333 54 309 0.0 0.9 0.00 0.00 0.00 46 1015.3
20260504011830 54 318 0.0 0.0 0.00 0.00 0.00 46 1015.3
20260504011327 54 317 0.0 0.9 0.00 0.00 0.00 46 1015.1
20260504010823 54 310 0.9 0.9 0.00 0.00 0.00 45 1015.1
20260504010318 54 325 0.0 0.0 0.00 0.00 0.00 46 1015.3
20260504005815 54 320 0.0 0.0 0.00 0.00 0.00 45 1015.2
20260504005312 55 311 0.0 0.0 0.00 0.00 0.00 45 1015.0
20260504004810 55 320 0.0 0.0 0.00 0.00 0.00 45 1015.1
20260504004307 55 256 0.0 0.9 0.00 0.00 0.00 43 1015.0
20260504003803 56 322 0.0 0.0 0.00 0.00 0.00 43 1015.1
20260504003300 56 292 0.9 0.9 0.00 0.00 0.00 43 1015.1
20260504002757 56 267 0.9 0.9 0.00 0.00 0.00 44 1014.8
20260504002254 56 323 0.0 0.0 0.00 0.00 0.00 42 1015.0
20260504001752 57 317 0.0 0.9 0.00 0.00 0.00 42 1014.8
20260504001248 57 305 0.0 0.0 0.00 0.00 0.00 41 1014.7
20260504000745 57 274 0.9 1.7 0.00 0.00 0.00 41 1014.8
20260504000242 57 236 1.7 1.7 0.00 0.00 0.00 40 1014.7
20260503235740 58 266 2.6 4.3 0.00 0.00 0.00 40 1014.7
20260503235237 58 319 0.9 0.9 0.00 0.00 0.00 39 1014.7
20260503234735 59 308 0.9 1.7 0.00 0.00 0.00 39 1014.6
20260503234233 59 312 0.9 1.7 0.00 0.00 0.00 38 1014.7
20260503233730 59 257 0.9 2.6 0.00 0.00 0.00 39 1014.6
20260503233225 59 293 0.9 0.9 0.00 0.00 0.00 39 1014.3
20260503232722 59 305 0.9 0.9 0.00 0.00 0.00 38 1014.5
20260503232220 59 289 1.7 1.7 0.00 0.00 0.00 37 1014.4
20260503231718 59 296 0.9 0.9 0.00 0.00 0.00 37 1014.5
20260503231214 59 312 3.5 4.3 0.00 0.00 0.00 38 1014.4
20260503230710 60 255 0.9 0.9 0.00 0.00 0.00 38 1014.6
20260503230208 60 238 4.3 6.1 0.00 0.00 0.00 36 1014.5
20260503225705 60 217 1.7 2.6 0.00 0.00 0.00 37 1014.2
20260503225205 60 283 1.7 2.6 0.00 0.00 0.00 37 1014.3
20260503224703 60 318 0.9 1.7 0.00 0.00 0.00 37 1014.4
20260503224200 60 268 0.9 1.7 0.00 0.00 0.00 37 1014.4
20260503223658 60 297 0.9 0.9 0.00 0.00 0.00 37 1014.5
20260503223155 60 144 2.6 2.6 0.00 0.00 0.00 36 1014.4
20260503222652 60 262 2.6 6.1 0.00 0.00 0.00 36 1014.4
20260503222149 61 279 2.6 2.6 0.00 0.00 0.00 35 1014.5
20260503221648 61 324 4.3 7.0 0.00 0.00 0.00 34 1014.3
20260503221144 61 304 4.3 5.2 0.00 0.00 0.00 35 1014.2
20260503220641 61 293 1.7 1.7 0.00 0.00 0.00 36 1014.3
20260503220138 61 193 3.5 5.2 0.00 0.00 0.00 36 1014.3
20260503215635 62 249 6.1 7.0 0.00 0.00 0.00 34 1014.4
20260503215132 62 307 2.6 5.2 0.00 0.00 0.00 35 1014.5